Weather History for Flamingo Airport, Bonaire, Bonaire

Change the Weather History Date:

Sunday, December 16, 2012

  Actual Average Record
Temperature  
Mean Temperature 82 °F -  
Max Temperature 86 °F 84 °F - ()
Min Temperature 77 °F 77 °F - ()
Cooling Degree Days 16    
Growing Degree Days 32 (Base 50)    
Moisture  
Dew Point 71 °F    
Average Humidity 73    
Maximum Humidity 83    
Minimum Humidity 50    
Precipitation  
Precipitation 0.00 in - - ()
Sea Level Pressure  
Sea Level Pressure 29.89 in    
Wind  
Wind Speed 7 mph ()    
Max Wind Speed 15 mph    
Max Gust Speed -    
Visibility 6.2 miles    
Events      
T = Trace of Precipitation, MM = Missing Value Source: Averaged Metar Reports

Daily Weather History Graph

Daily Weather History Graph

Search for Another Location

Airport:

Trip Planner

Search our weather history database for the weather conditions in past years. The results will help you decide how hot, cold, wet, or windy it might be!

Date:

Astronomy

Dec. 16, 2012 Rise Set
Actual Time 6:46 AM AST 6:11 PM AST
Civil Twilight 6:23 AM AST 6:34 PM AST
Nautical Twilight 5:56 AM AST 7:01 PM AST
Astronomical Twilight 5:30 AM AST 7:27 PM AST
Moon 9:45 AM AST (12/16) 9:48 PM AST (12/16)
Length of Visible Light 12h 11m
Length of Day
11h 25m
Waxing Crescent, 15% of the Moon is Illuminated
Dec 16
Waxing Crescent
Dec 20
First Quarter
Dec 28
Full
Jan 4
Last Quarter
Jan 11
New

Hourly Weather History & Observations

Time (AST) Temp. Heat Index Dew Point Humidity Pressure Visibility Wind Dir Wind Speed Gust Speed Precip Events Conditions
12:00 AM 78.8 °F - 71.6 °F 78% 29.92 in 6.2 mi East 4.6 mph - N/A   Partly Cloudy
1:00 AM 78.8 °F - 71.6 °F 78% 29.89 in 6.2 mi East 4.6 mph - N/A   Partly Cloudy
2:00 AM 78 °F - 72 °F 78%  in - East 6.9 mph - -   Clear
2:00 AM 78.8 °F - 71.6 °F 78% 29.89 in - East 6.9 mph - N/A   Unknown
3:00 AM 77.0 °F - 71.6 °F 83% 29.86 in - East 3.5 mph - N/A   Unknown
4:00 AM 77.0 °F - 71.6 °F 83% 29.86 in - East 4.6 mph - N/A   Unknown
5:00 AM 77.0 °F - 71.6 °F 83% 29.86 in - East 5.8 mph - N/A   Unknown
6:00 AM 77.0 °F - 71.6 °F 83% 29.86 in - East 3.5 mph - N/A   Unknown
7:00 AM 77.0 °F - 71.6 °F 83% 29.89 in - ENE 5.8 mph - N/A   Unknown
8:00 AM 82.4 °F 88.2 °F 73.4 °F 74% 29.92 in - East 5.8 mph - N/A   Unknown
9:00 AM 82.4 °F 88.2 °F 73.4 °F 74% 29.95 in 6.2 mi East 10.4 mph - N/A   Scattered Clouds
10:00 AM 84.2 °F 89.6 °F 71.6 °F 66% 29.95 in 6.2 mi East 15.0 mph - N/A   Mostly Cloudy
11:00 AM 84.2 °F 89.6 °F 71.6 °F 66% 29.95 in 6.2 mi East 15.0 mph - N/A   Mostly Cloudy
12:00 PM 84.2 °F 89.6 °F 71.6 °F 66% 29.92 in 6.2 mi East 12.7 mph - N/A   Scattered Clouds
1:00 PM 86.0 °F 89.4 °F 68.0 °F 55% 29.89 in 6.2 mi East 12.7 mph - N/A   Scattered Clouds
2:00 PM 85 °F - 69 °F 50%  in 6 mi East 12.7 mph - -   Clear
2:00 PM 84.2 °F 88.4 °F 69.8 °F 62% 29.89 in - North - - N/A   Unknown
3:00 PM 86.0 °F 91.8 °F 71.6 °F 62% 29.86 in - North - - N/A   Unknown
4:00 PM 84.2 °F 89.6 °F 71.6 °F 66% 29.86 in 6.2 mi East 12.7 mph - N/A   Mostly Cloudy
5:00 PM 82 °F - 72 °F 65% 29.87 in 22 mi ESE 12.7 mph - -   Mostly Cloudy
5:00 PM 82.4 °F 87.2 °F 71.6 °F 70% 29.86 in 6.2 mi ESE 12.7 mph - N/A   Mostly Cloudy
6:00 PM 80.6 °F 85.4 °F 73.4 °F 79% 29.86 in - North - - N/A   Unknown
7:00 PM 80.6 °F 83.9 °F 69.8 °F 70% 29.86 in - North - - N/A   Unknown
8:00 PM 79 °F - 72 °F 73% 29.90 in 22 mi East 11.5 mph - -   Partly Cloudy
8:00 PM 78.8 °F - 71.6 °F 78% 29.89 in 6.2 mi East 11.5 mph - N/A   Scattered Clouds
10:00 PM 77.0 °F - 71.6 °F 83% 29.92 in - East 10.4 mph - N/A   Unknown